Year,Month,Day,Hour,Minute,Value (Times are PST for temperature in C)
2020,05,01,00,00,10.50
2020,05,01,00,01,10.50
2020,05,01,00,02,10.50
2020,05,01,00,03,10.50
2020,05,01,00,04,10.50
2020,05,01,00,05,10.50
2020,05,01,00,06,10.40
2020,05,01,00,07,10.40
2020,05,01,00,08,10.40
2020,05,01,00,09,10.40
2020,05,01,00,10,10.40
2020,05,01,00,11,10.40
2020,05,01,00,12,10.40
2020,05,01,00,13,10.40
2020,05,01,00,14,10.40
2020,05,01,00,15,10.40
2020,05,01,00,16,10.40
2020,05,01,00,17,10.40
2020,05,01,00,18,10.40
2020,05,01,00,19,10.40
2020,05,01,00,20,10.40
2020,05,01,00,21,10.30
2020,05,01,00,22,10.30
2020,05,01,00,23,10.30
2020,05,01,00,24,10.30
2020,05,01,00,25,10.30
2020,05,01,00,26,10.30
2020,05,01,00,27,10.20
2020,05,01,00,28,10.20
2020,05,01,00,29,10.20
2020,05,01,00,30,10.20
2020,05,01,00,31,10.10
2020,05,01,00,32,10.10
2020,05,01,00,33,10.10
2020,05,01,00,34,10.10
2020,05,01,00,35,10.10
2020,05,01,00,36,10.00
2020,05,01,00,37,10.00
2020,05,01,00,38,10.00
2020,05,01,00,39,10.00
2020,05,01,00,40,9.90
2020,05,01,00,41,9.90
2020,05,01,00,42,9.90
2020,05,01,00,43,9.90
2020,05,01,00,44,9.90
2020,05,01,00,45,9.90
2020,05,01,00,46,9.90
2020,05,01,00,47,9.80
2020,05,01,00,48,9.80
2020,05,01,00,49,9.80
2020,05,01,00,50,9.80
2020,05,01,00,51,9.80
2020,05,01,00,52,9.80
2020,05,01,00,53,9.70
2020,05,01,00,54,9.70
2020,05,01,00,55,9.70
2020,05,01,00,56,9.70
2020,05,01,00,57,9.70
2020,05,01,00,58,9.70
2020,05,01,00,59,9.70
2020,05,01,01,00,9.70
2020,05,01,01,01,9.70
2020,05,01,01,02,9.70
2020,05,01,01,03,9.70
2020,05,01,01,04,9.70
2020,05,01,01,05,9.70
2020,05,01,01,06,9.70
2020,05,01,01,07,9.70
2020,05,01,01,08,9.70
2020,05,01,01,09,9.70
2020,05,01,01,10,9.70
2020,05,01,01,11,9.70
2020,05,01,01,12,9.60
2020,05,01,01,13,9.60
2020,05,01,01,14,9.60
2020,05,01,01,15,9.60
2020,05,01,01,16,9.60
2020,05,01,01,17,9.60
2020,05,01,01,18,9.60
2020,05,01,01,19,9.60
2020,05,01,01,20,9.60
2020,05,01,01,21,9.60
2020,05,01,01,22,9.60
2020,05,01,01,23,9.60
2020,05,01,01,24,9.50
2020,05,01,01,25,9.50
2020,05,01,01,26,9.50
2020,05,01,01,27,9.50
2020,05,01,01,28,9.50
2020,05,01,01,29,9.50
2020,05,01,01,30,9.50
2020,05,01,01,31,9.40
2020,05,01,01,32,9.40
2020,05,01,01,33,9.40
2020,05,01,01,34,9.40
2020,05,01,01,35,9.40
2020,05,01,01,36,9.40
2020,05,01,01,37,9.40
2020,05,01,01,38,9.40
2020,05,01,01,39,9.40
2020,05,01,01,40,9.40
2020,05,01,01,41,9.40
2020,05,01,01,42,9.40
2020,05,01,01,43,9.40
2020,05,01,01,44,9.40
2020,05,01,01,45,9.40
2020,05,01,01,46,9.40
2020,05,01,01,47,9.50
2020,05,01,01,48,9.50
2020,05,01,01,49,9.50
2020,05,01,01,50,9.50
2020,05,01,01,51,9.60
2020,05,01,01,52,9.60
2020,05,01,01,53,9.60
2020,05,01,01,54,9.50
2020,05,01,01,55,9.50
2020,05,01,01,56,9.50
2020,05,01,01,57,9.50
2020,05,01,01,58,9.50
2020,05,01,01,59,9.50
2020,05,01,02,00,9.50
2020,05,01,02,01,9.50
2020,05,01,02,02,9.50
2020,05,01,02,03,9.50
2020,05,01,02,04,9.50
2020,05,01,02,05,9.50
2020,05,01,02,06,9.50
2020,05,01,02,07,9.50
2020,05,01,02,08,9.50
2020,05,01,02,09,9.50
2020,05,01,02,10,9.50
2020,05,01,02,11,9.50
2020,05,01,02,12,9.50
2020,05,01,02,13,9.60
2020,05,01,02,14,9.60
2020,05,01,02,15,9.60
2020,05,01,02,16,9.60
2020,05,01,02,17,9.60
2020,05,01,02,18,9.60
2020,05,01,02,19,9.60
2020,05,01,02,20,9.60
2020,05,01,02,21,9.60
2020,05,01,02,22,9.60
2020,05,01,02,23,9.60
2020,05,01,02,24,9.60
2020,05,01,02,25,9.60
2020,05,01,02,26,9.60
2020,05,01,02,27,9.60
2020,05,01,02,28,9.60
2020,05,01,02,29,9.60
2020,05,01,02,30,9.60
2020,05,01,02,31,9.60
2020,05,01,02,32,9.60
2020,05,01,02,33,9.60
2020,05,01,02,34,9.60
2020,05,01,02,35,9.60
2020,05,01,02,36,9.60
2020,05,01,02,37,9.60
2020,05,01,02,38,9.60
2020,05,01,02,39,9.60
2020,05,01,02,40,9.60
2020,05,01,02,41,9.60
2020,05,01,02,42,9.60
2020,05,01,02,43,9.60
2020,05,01,02,44,9.60
2020,05,01,02,45,9.60
2020,05,01,02,46,9.60
2020,05,01,02,47,9.60
2020,05,01,02,48,9.70
2020,05,01,02,49,9.70
2020,05,01,02,50,9.70
2020,05,01,02,51,9.70
2020,05,01,02,52,9.70
2020,05,01,02,53,9.70
2020,05,01,02,54,9.70
2020,05,01,02,55,9.80
2020,05,01,02,56,9.80
2020,05,01,02,57,9.80
2020,05,01,02,58,9.80
2020,05,01,02,59,9.80
2020,05,01,03,00,9.80
2020,05,01,03,01,9.80
2020,05,01,03,02,9.80
2020,05,01,03,03,9.80
2020,05,01,03,04,9.80
2020,05,01,03,05,9.80
2020,05,01,03,06,9.80
2020,05,01,03,07,9.80
2020,05,01,03,08,9.80
2020,05,01,03,09,9.80
2020,05,01,03,10,9.80
2020,05,01,03,11,9.80
2020,05,01,03,12,9.80
2020,05,01,03,13,9.80
2020,05,01,03,14,9.80
2020,05,01,03,15,9.80
2020,05,01,03,16,9.80
2020,05,01,03,17,9.80
2020,05,01,03,18,9.80
2020,05,01,03,19,9.80
2020,05,01,03,20,9.80
2020,05,01,03,21,9.80
2020,05,01,03,22,9.80
2020,05,01,03,23,9.80
2020,05,01,03,24,9.80
2020,05,01,03,25,9.80
2020,05,01,03,26,9.80
2020,05,01,03,27,9.80
2020,05,01,03,28,9.80
2020,05,01,03,29,9.80
2020,05,01,03,30,9.80
2020,05,01,03,31,9.80
2020,05,01,03,32,9.80
2020,05,01,03,33,9.80
2020,05,01,03,34,9.80
2020,05,01,03,35,9.70
2020,05,01,03,36,9.70
2020,05,01,03,37,9.70
2020,05,01,03,38,9.70
2020,05,01,03,39,9.70
2020,05,01,03,40,9.70
2020,05,01,03,41,9.70
2020,05,01,03,42,9.70
2020,05,01,03,43,9.70
2020,05,01,03,44,9.70
2020,05,01,03,45,9.70
2020,05,01,03,46,9.70
2020,05,01,03,47,9.70
2020,05,01,03,48,9.70
2020,05,01,03,49,9.70
2020,05,01,03,50,9.70
2020,05,01,03,51,9.70
2020,05,01,03,52,9.70
2020,05,01,03,53,9.70
2020,05,01,03,54,9.70
2020,05,01,03,55,9.80
2020,05,01,03,56,9.80
2020,05,01,03,57,9.80
2020,05,01,03,58,9.80
2020,05,01,03,59,9.80
2020,05,01,04,00,9.80
2020,05,01,04,01,9.80
2020,05,01,04,02,9.80
2020,05,01,04,03,9.80
2020,05,01,04,04,9.80
2020,05,01,04,05,9.80
2020,05,01,04,06,9.80
2020,05,01,04,07,9.80
2020,05,01,04,08,9.80
2020,05,01,04,09,9.80
2020,05,01,04,10,9.80
2020,05,01,04,11,9.70
2020,05,01,04,12,9.70
2020,05,01,04,13,9.70
2020,05,01,04,14,9.70
2020,05,01,04,15,9.70
2020,05,01,04,16,9.70
2020,05,01,04,17,9.70
2020,05,01,04,18,9.70
2020,05,01,04,19,9.70
2020,05,01,04,20,9.70
2020,05,01,04,21,9.70
2020,05,01,04,22,9.70
2020,05,01,04,23,9.70
2020,05,01,04,24,9.70
2020,05,01,04,25,9.70
2020,05,01,04,26,9.70
2020,05,01,04,27,9.70
2020,05,01,04,28,9.70
2020,05,01,04,29,9.70
2020,05,01,04,30,9.70
2020,05,01,04,31,9.70
2020,05,01,04,32,9.70
2020,05,01,04,33,9.70
2020,05,01,04,34,9.60
2020,05,01,04,35,9.60
2020,05,01,04,36,9.60
2020,05,01,04,37,9.60
2020,05,01,04,38,9.60
2020,05,01,04,39,9.60
2020,05,01,04,40,9.60
2020,05,01,04,41,9.60
2020,05,01,04,42,9.60
2020,05,01,04,43,9.60
2020,05,01,04,44,9.60
2020,05,01,04,45,9.60
2020,05,01,04,46,9.60
2020,05,01,04,47,9.60
2020,05,01,04,48,9.60
2020,05,01,04,49,9.60
2020,05,01,04,50,9.60
2020,05,01,04,51,9.60
2020,05,01,04,52,9.60
2020,05,01,04,53,9.60
2020,05,01,04,54,9.60
2020,05,01,04,55,9.60
2020,05,01,04,56,9.60
2020,05,01,04,57,9.60
2020,05,01,04,58,9.60
2020,05,01,04,59,9.60
2020,05,01,05,00,9.60
2020,05,01,05,01,9.60
2020,05,01,05,02,9.60
2020,05,01,05,03,9.60
2020,05,01,05,04,9.60
2020,05,01,05,05,9.60
2020,05,01,05,06,9.60
2020,05,01,05,07,9.60
2020,05,01,05,08,9.60
2020,05,01,05,09,9.60
2020,05,01,05,10,9.60
2020,05,01,05,11,9.60
2020,05,01,05,12,9.60
2020,05,01,05,13,9.50
2020,05,01,05,14,9.50
2020,05,01,05,15,9.50
2020,05,01,05,16,9.50
2020,05,01,05,17,9.50
2020,05,01,05,18,9.50
2020,05,01,05,19,9.40
2020,05,01,05,20,9.40
2020,05,01,05,21,9.40
2020,05,01,05,22,9.40
2020,05,01,05,23,9.40
2020,05,01,05,24,9.40
2020,05,01,05,25,9.40
2020,05,01,05,26,9.40
2020,05,01,05,27,9.30
2020,05,01,05,28,9.30
2020,05,01,05,29,9.30
2020,05,01,05,30,9.30
2020,05,01,05,31,9.30
2020,05,01,05,32,9.30
2020,05,01,05,33,9.30
2020,05,01,05,34,9.30
2020,05,01,05,35,9.30
2020,05,01,05,36,9.30
2020,05,01,05,37,9.30
2020,05,01,05,38,9.30
2020,05,01,05,39,9.30
2020,05,01,05,40,9.30
2020,05,01,05,41,9.30
2020,05,01,05,42,9.30
2020,05,01,05,43,9.30
2020,05,01,05,44,9.20
2020,05,01,05,45,9.20
2020,05,01,05,46,9.20
2020,05,01,05,47,9.20
2020,05,01,05,48,9.20
2020,05,01,05,49,9.20
2020,05,01,05,50,9.20
2020,05,01,05,51,9.20
2020,05,01,05,52,9.20
2020,05,01,05,53,9.20
2020,05,01,05,54,9.20
2020,05,01,05,55,9.10
2020,05,01,05,56,9.10
2020,05,01,05,57,9.10
2020,05,01,05,58,9.10
2020,05,01,05,59,9.10
2020,05,01,06,00,9.10
2020,05,01,06,01,9.10
2020,05,01,06,02,9.10
2020,05,01,06,03,9.10
2020,05,01,06,04,9.10
2020,05,01,06,05,9.10
2020,05,01,06,06,9.10
2020,05,01,06,07,9.10
2020,05,01,06,08,9.10
2020,05,01,06,09,9.10
2020,05,01,06,10,9.10
2020,05,01,06,11,9.10
2020,05,01,06,12,9.10
2020,05,01,06,13,9.10
2020,05,01,06,14,9.10
2020,05,01,06,15,9.10
2020,05,01,06,16,9.20
2020,05,01,06,17,9.20
2020,05,01,06,18,9.20
2020,05,01,06,19,9.20
2020,05,01,06,20,9.20
2020,05,01,06,21,9.20
2020,05,01,06,22,9.10
2020,05,01,06,23,9.20
2020,05,01,06,24,9.10
2020,05,01,06,25,9.20
2020,05,01,06,26,9.20
2020,05,01,06,27,9.20
2020,05,01,06,28,9.20
2020,05,01,06,29,9.20
2020,05,01,06,30,9.20
2020,05,01,06,31,9.10
2020,05,01,06,32,9.10
2020,05,01,06,33,9.10
2020,05,01,06,34,9.10
2020,05,01,06,35,9.10
2020,05,01,06,36,9.10
2020,05,01,06,37,9.10
2020,05,01,06,38,9.10
2020,05,01,06,39,9.10
2020,05,01,06,40,9.10
2020,05,01,06,41,9.10
2020,05,01,06,42,9.10
2020,05,01,06,43,9.10
2020,05,01,06,44,9.10
2020,05,01,06,45,9.00
2020,05,01,06,46,9.00
2020,05,01,06,47,9.00
2020,05,01,06,48,8.90
2020,05,01,06,49,8.90
2020,05,01,06,50,8.90
2020,05,01,06,51,8.90
2020,05,01,06,52,8.90
2020,05,01,06,53,8.80
2020,05,01,06,54,8.80
2020,05,01,06,55,8.80
2020,05,01,06,56,8.80
2020,05,01,06,57,8.80
2020,05,01,06,58,8.80
2020,05,01,06,59,8.80
2020,05,01,07,00,8.90
2020,05,01,07,01,8.90
2020,05,01,07,02,8.90
2020,05,01,07,03,8.90
2020,05,01,07,04,8.90
2020,05,01,07,05,8.90
2020,05,01,07,06,9.00
2020,05,01,07,07,9.00
2020,05,01,07,08,9.00
2020,05,01,07,09,9.10
2020,05,01,07,10,9.10
2020,05,01,07,11,9.10
2020,05,01,07,12,9.10
2020,05,01,07,13,9.10
2020,05,01,07,14,9.10
2020,05,01,07,15,9.10
2020,05,01,07,16,9.10
2020,05,01,07,17,9.10
2020,05,01,07,18,9.10
2020,05,01,07,19,9.10
2020,05,01,07,20,9.10
2020,05,01,07,21,9.10
2020,05,01,07,22,9.10
2020,05,01,07,23,9.10
2020,05,01,07,24,9.10
2020,05,01,07,25,9.10
2020,05,01,07,26,9.10
2020,05,01,07,27,9.10
2020,05,01,07,28,9.20
2020,05,01,07,29,9.20
2020,05,01,07,30,9.20
2020,05,01,07,31,9.30
2020,05,01,07,32,9.30
2020,05,01,07,33,9.30
2020,05,01,07,34,9.30
2020,05,01,07,35,9.40
2020,05,01,07,36,9.40
2020,05,01,07,37,9.40
2020,05,01,07,38,9.40
2020,05,01,07,39,9.40
2020,05,01,07,40,9.50
2020,05,01,07,41,9.50
2020,05,01,07,42,9.50
2020,05,01,07,43,9.50
2020,05,01,07,44,9.50
2020,05,01,07,45,9.50
2020,05,01,07,46,9.50
2020,05,01,07,47,9.50
2020,05,01,07,48,9.50
2020,05,01,07,49,9.50
2020,05,01,07,50,9.50
2020,05,01,07,51,9.60
2020,05,01,07,52,9.60
2020,05,01,07,53,9.70
2020,05,01,07,54,9.70
2020,05,01,07,55,9.70
2020,05,01,07,56,9.70
2020,05,01,07,57,9.70
2020,05,01,07,58,9.80
2020,05,01,07,59,9.80
2020,05,01,08,00,9.80
2020,05,01,08,01,9.80
2020,05,01,08,02,9.90
2020,05,01,08,03,9.90
2020,05,01,08,04,9.90
2020,05,01,08,05,10.00
2020,05,01,08,06,10.00
2020,05,01,08,07,10.00
2020,05,01,08,08,10.00
2020,05,01,08,09,10.00
2020,05,01,08,10,9.90
2020,05,01,08,11,9.90
2020,05,01,08,12,9.90
2020,05,01,08,13,9.90
2020,05,01,08,14,9.90
2020,05,01,08,15,9.80
2020,05,01,08,16,9.80
2020,05,01,08,17,9.80
2020,05,01,08,18,9.80
2020,05,01,08,19,9.80
2020,05,01,08,20,9.80
2020,05,01,08,21,9.70
2020,05,01,08,22,9.70
2020,05,01,08,23,9.70
2020,05,01,08,24,9.60
2020,05,01,08,25,9.60
2020,05,01,08,26,9.60
2020,05,01,08,27,9.50
2020,05,01,08,28,9.50
2020,05,01,08,29,9.50
2020,05,01,08,30,9.50
2020,05,01,08,31,9.40
2020,05,01,08,32,9.40
2020,05,01,08,33,9.40
2020,05,01,08,34,9.40
2020,05,01,08,35,9.50
2020,05,01,08,36,9.40
2020,05,01,08,37,9.40
2020,05,01,08,38,9.40
2020,05,01,08,39,9.40
2020,05,01,08,40,9.40
2020,05,01,08,41,9.40
2020,05,01,08,42,9.40
2020,05,01,08,43,9.40
2020,05,01,08,44,9.40
2020,05,01,08,45,9.40
2020,05,01,08,46,9.40
2020,05,01,08,47,9.40
2020,05,01,08,48,9.40
2020,05,01,08,49,9.50
2020,05,01,08,50,9.50
2020,05,01,08,51,9.60
2020,05,01,08,52,9.60
2020,05,01,08,53,9.60
2020,05,01,08,54,9.70
2020,05,01,08,55,9.70
2020,05,01,08,56,9.70
2020,05,01,08,57,9.60
2020,05,01,08,58,9.60
2020,05,01,08,59,9.60
2020,05,01,09,00,9.60
2020,05,01,09,01,9.60
2020,05,01,09,02,9.70
2020,05,01,09,03,9.70
2020,05,01,09,04,9.70
2020,05,01,09,05,9.70
2020,05,01,09,06,9.70
2020,05,01,09,07,9.70
2020,05,01,09,08,9.60
2020,05,01,09,09,9.60
2020,05,01,09,10,9.60
2020,05,01,09,11,9.60
2020,05,01,09,12,9.50
2020,05,01,09,13,9.60
2020,05,01,09,14,9.60
2020,05,01,09,15,9.60
2020,05,01,09,16,9.60
2020,05,01,09,17,9.50
2020,05,01,09,18,9.40
2020,05,01,09,19,9.40
2020,05,01,09,20,9.40
2020,05,01,09,21,9.40
2020,05,01,09,22,9.40
2020,05,01,09,23,9.50
2020,05,01,09,24,9.60
2020,05,01,09,25,9.60
2020,05,01,09,26,9.60
2020,05,01,09,27,9.70
2020,05,01,09,28,9.70
2020,05,01,09,29,9.80
2020,05,01,09,30,9.80
2020,05,01,09,31,9.80
2020,05,01,09,32,9.80
2020,05,01,09,33,9.80
2020,05,01,09,34,9.70
2020,05,01,09,35,9.60
2020,05,01,09,36,9.60
2020,05,01,09,37,9.70
2020,05,01,09,38,9.60
2020,05,01,09,39,9.60
2020,05,01,09,40,9.60
2020,05,01,09,41,9.60
2020,05,01,09,42,9.60
2020,05,01,09,43,9.60
2020,05,01,09,44,9.60
2020,05,01,09,45,9.70
2020,05,01,09,46,9.70
2020,05,01,09,47,9.70
2020,05,01,09,48,9.70
2020,05,01,09,49,9.70
2020,05,01,09,50,9.70
2020,05,01,09,51,9.70
2020,05,01,09,52,9.70
2020,05,01,09,53,9.70
2020,05,01,09,54,9.70
2020,05,01,09,55,9.80
2020,05,01,09,56,9.80
2020,05,01,09,57,9.80
2020,05,01,09,58,9.80
2020,05,01,09,59,9.80
2020,05,01,10,00,9.80
2020,05,01,10,01,9.80
2020,05,01,10,02,9.80
2020,05,01,10,03,9.90
2020,05,01,10,04,9.90
2020,05,01,10,05,9.90
2020,05,01,10,06,9.90
2020,05,01,10,07,9.90
2020,05,01,10,08,10.00
2020,05,01,10,09,10.00
2020,05,01,10,10,10.10
2020,05,01,10,11,10.20
2020,05,01,10,12,10.20
2020,05,01,10,13,10.20
2020,05,01,10,14,10.20
2020,05,01,10,15,10.20
2020,05,01,10,16,10.20
2020,05,01,10,17,10.20
2020,05,01,10,18,10.30
2020,05,01,10,19,10.30
2020,05,01,10,20,10.40
2020,05,01,10,21,10.50
2020,05,01,10,22,10.50
2020,05,01,10,23,10.50
2020,05,01,10,24,10.50
2020,05,01,10,25,10.60
2020,05,01,10,26,10.60
2020,05,01,10,27,10.60
2020,05,01,10,28,10.60
2020,05,01,10,29,10.60
2020,05,01,10,30,10.60
2020,05,01,10,31,10.60
2020,05,01,10,32,10.70
2020,05,01,10,33,10.70
2020,05,01,10,34,10.70
2020,05,01,10,35,10.70
2020,05,01,10,36,10.70
2020,05,01,10,37,10.80
2020,05,01,10,38,10.80
2020,05,01,10,39,10.70
2020,05,01,10,40,10.70
2020,05,01,10,41,10.70
2020,05,01,10,42,10.70
2020,05,01,10,43,10.80
2020,05,01,10,44,10.90
2020,05,01,10,45,11.00
2020,05,01,10,46,11.10
2020,05,01,10,47,11.10
2020,05,01,10,48,11.10
2020,05,01,10,49,11.20
2020,05,01,10,50,11.30
2020,05,01,10,51,11.30
2020,05,01,10,52,11.40
2020,05,01,10,53,11.40
2020,05,01,10,54,11.40
2020,05,01,10,55,11.40
2020,05,01,10,56,11.40
2020,05,01,10,57,11.40
2020,05,01,10,58,11.40
2020,05,01,10,59,11.40
2020,05,01,11,00,11.40
2020,05,01,11,01,11.50
2020,05,01,11,02,11.50
2020,05,01,11,03,11.60
2020,05,01,11,04,11.60
2020,05,01,11,05,11.60
2020,05,01,11,06,11.70
2020,05,01,11,07,11.70
2020,05,01,11,08,11.70
2020,05,01,11,09,11.70
2020,05,01,11,10,11.70
2020,05,01,11,11,11.70
2020,05,01,11,12,11.70
2020,05,01,11,13,11.80
2020,05,01,11,14,11.90
2020,05,01,11,15,11.90
2020,05,01,11,16,11.90
2020,05,01,11,17,11.90
2020,05,01,11,18,12.00
2020,05,01,11,19,12.10
2020,05,01,11,20,12.20
2020,05,01,11,21,12.20
2020,05,01,11,22,12.30
2020,05,01,11,23,12.40
2020,05,01,11,24,12.40
2020,05,01,11,25,12.50
2020,05,01,11,26,12.60
2020,05,01,11,27,12.70
2020,05,01,11,28,12.70
2020,05,01,11,29,12.60
2020,05,01,11,30,12.60
2020,05,01,11,31,12.60
2020,05,01,11,32,12.60
2020,05,01,11,33,12.50
2020,05,01,11,34,12.50
2020,05,01,11,35,12.30
2020,05,01,11,36,12.20
2020,05,01,11,37,12.10
2020,05,01,11,38,12.20
2020,05,01,11,39,12.20
2020,05,01,11,40,12.20
2020,05,01,11,41,12.30
2020,05,01,11,42,12.30
2020,05,01,11,43,12.20
2020,05,01,11,44,12.20
2020,05,01,11,45,12.20
2020,05,01,11,46,12.30
2020,05,01,11,47,12.40
2020,05,01,11,48,12.40
2020,05,01,11,49,12.50
2020,05,01,11,50,12.60
2020,05,01,11,51,12.60
2020,05,01,11,52,12.70
2020,05,01,11,53,12.70
2020,05,01,11,54,12.80
2020,05,01,11,55,12.80
2020,05,01,11,56,12.70
2020,05,01,11,57,12.70
2020,05,01,11,58,12.70
2020,05,01,11,59,12.70
2020,05,01,12,00,12.70
2020,05,01,12,01,12.70
2020,05,01,12,02,12.80
2020,05,01,12,03,12.90
2020,05,01,12,04,12.90
2020,05,01,12,05,12.90
2020,05,01,12,06,13.00
2020,05,01,12,07,13.10
2020,05,01,12,08,13.20
2020,05,01,12,09,13.30
2020,05,01,12,10,13.40
2020,05,01,12,11,13.40
2020,05,01,12,12,13.50
2020,05,01,12,13,13.50
2020,05,01,12,14,13.60
2020,05,01,12,15,13.60
2020,05,01,12,16,13.60
2020,05,01,12,17,13.70
2020,05,01,12,18,13.70
2020,05,01,12,19,13.80
2020,05,01,12,20,13.80
2020,05,01,12,21,13.90
2020,05,01,12,22,13.90
2020,05,01,12,23,13.90
2020,05,01,12,24,13.90
2020,05,01,12,25,14.00
2020,05,01,12,26,14.00
2020,05,01,12,27,14.00
2020,05,01,12,28,14.00
2020,05,01,12,29,14.00
2020,05,01,12,30,14.10
2020,05,01,12,31,14.10
2020,05,01,12,32,14.10
2020,05,01,12,33,14.10
2020,05,01,12,34,14.10
2020,05,01,12,35,14.10
2020,05,01,12,36,13.90
2020,05,01,12,37,13.80
2020,05,01,12,38,13.80
2020,05,01,12,39,13.80
2020,05,01,12,40,13.70
2020,05,01,12,41,13.70
2020,05,01,12,42,13.70
2020,05,01,12,43,13.70
2020,05,01,12,44,13.80
2020,05,01,12,45,13.80
2020,05,01,12,46,13.80
2020,05,01,12,47,13.80
2020,05,01,12,48,13.80
2020,05,01,12,49,13.90
2020,05,01,12,50,13.90
2020,05,01,12,51,13.90
2020,05,01,12,52,14.00
2020,05,01,12,53,13.90
2020,05,01,12,54,13.90
2020,05,01,12,55,13.90
2020,05,01,12,56,13.80
2020,05,01,12,57,13.80
2020,05,01,12,58,13.80
2020,05,01,12,59,13.80
2020,05,01,13,00,13.70
2020,05,01,13,01,13.70
2020,05,01,13,02,13.70
2020,05,01,13,03,13.70
2020,05,01,13,04,13.70
2020,05,01,13,05,13.70
2020,05,01,13,06,13.80
2020,05,01,13,07,13.90
2020,05,01,13,08,13.90
2020,05,01,13,09,14.00
2020,05,01,13,10,14.10
2020,05,01,13,11,14.00
2020,05,01,13,12,13.90
2020,05,01,13,13,13.90
2020,05,01,13,14,13.90
2020,05,01,13,15,13.90
2020,05,01,13,16,14.00
2020,05,01,13,17,14.00
2020,05,01,13,18,14.10
2020,05,01,13,19,14.10
2020,05,01,13,20,14.00
2020,05,01,13,21,14.10
2020,05,01,13,22,14.10
2020,05,01,13,23,14.20
2020,05,01,13,24,14.20
2020,05,01,13,25,14.20
2020,05,01,13,26,14.20
2020,05,01,13,27,14.20
2020,05,01,13,28,14.30
2020,05,01,13,29,14.40
2020,05,01,13,30,14.40
2020,05,01,13,31,14.50
2020,05,01,13,32,14.60
2020,05,01,13,33,14.60
2020,05,01,13,34,14.60
2020,05,01,13,35,14.60
2020,05,01,13,36,14.50
2020,05,01,13,37,14.50
2020,05,01,13,38,14.50
2020,05,01,13,39,14.50
2020,05,01,13,40,14.50
2020,05,01,13,41,14.50
2020,05,01,13,42,14.50
2020,05,01,13,43,14.50
2020,05,01,13,44,14.50
2020,05,01,13,45,14.50
2020,05,01,13,46,14.40
2020,05,01,13,47,14.40
2020,05,01,13,48,14.30
2020,05,01,13,49,14.20
2020,05,01,13,50,14.10
2020,05,01,13,51,14.10
2020,05,01,13,52,14.10
2020,05,01,13,53,14.00
2020,05,01,13,54,13.90
2020,05,01,13,55,13.90
2020,05,01,13,56,13.90
2020,05,01,13,57,13.90
2020,05,01,13,58,13.90
2020,05,01,13,59,13.80
2020,05,01,14,00,13.80
2020,05,01,14,01,13.80
2020,05,01,14,02,13.90
2020,05,01,14,03,13.90
2020,05,01,14,04,13.90
2020,05,01,14,05,13.90
2020,05,01,14,06,13.90
2020,05,01,14,07,14.00
2020,05,01,14,08,14.10
2020,05,01,14,09,14.10
2020,05,01,14,10,14.10
2020,05,01,14,11,14.20
2020,05,01,14,12,14.20
2020,05,01,14,13,14.20
2020,05,01,14,14,14.20
2020,05,01,14,15,14.30
2020,05,01,14,16,14.30
2020,05,01,14,17,14.40
2020,05,01,14,18,14.40
2020,05,01,14,19,14.50
2020,05,01,14,20,14.50
2020,05,01,14,21,14.50
2020,05,01,14,22,14.60
2020,05,01,14,23,14.60
2020,05,01,14,24,14.60
2020,05,01,14,25,14.60
2020,05,01,14,26,14.70
2020,05,01,14,27,14.60
2020,05,01,14,28,14.60
2020,05,01,14,29,14.60
2020,05,01,14,30,14.60
2020,05,01,14,31,14.60
2020,05,01,14,32,14.60
2020,05,01,14,33,14.60
2020,05,01,14,34,14.60
2020,05,01,14,35,14.70
2020,05,01,14,36,14.70
2020,05,01,14,37,14.90
2020,05,01,14,38,15.00
2020,05,01,14,39,15.10
2020,05,01,14,40,15.20
2020,05,01,14,41,15.30
2020,05,01,14,42,15.40
2020,05,01,14,43,15.50
2020,05,01,14,44,15.60
2020,05,01,14,45,15.60
2020,05,01,14,46,15.70
2020,05,01,14,47,15.70
2020,05,01,14,48,15.70
2020,05,01,14,49,15.70
2020,05,01,14,50,15.70
2020,05,01,14,51,15.70
2020,05,01,14,52,15.60
2020,05,01,14,53,15.60
2020,05,01,14,54,15.60
2020,05,01,14,55,15.60
2020,05,01,14,56,15.50
2020,05,01,14,57,15.50
2020,05,01,14,58,15.40
2020,05,01,14,59,15.40
2020,05,01,15,00,15.30
2020,05,01,15,01,15.30
2020,05,01,15,02,15.20
2020,05,01,15,03,15.10
2020,05,01,15,04,15.10
2020,05,01,15,05,15.10
2020,05,01,15,06,15.10
2020,05,01,15,07,15.10
2020,05,01,15,08,15.10
2020,05,01,15,09,15.20
2020,05,01,15,10,15.20
2020,05,01,15,11,15.20
2020,05,01,15,12,15.20
2020,05,01,15,13,15.20
2020,05,01,15,14,15.20
2020,05,01,15,15,15.20
2020,05,01,15,16,15.20
2020,05,01,15,17,15.20
2020,05,01,15,18,15.20
2020,05,01,15,19,15.20
2020,05,01,15,20,15.20
2020,05,01,15,21,15.20
2020,05,01,15,22,15.20
2020,05,01,15,23,15.20
2020,05,01,15,24,15.20
2020,05,01,15,25,15.30
2020,05,01,15,26,15.30
2020,05,01,15,27,15.30
2020,05,01,15,28,15.30
2020,05,01,15,29,15.20
2020,05,01,15,30,15.20
2020,05,01,15,31,15.20
2020,05,01,15,32,15.20
2020,05,01,15,33,15.10
2020,05,01,15,34,15.10
2020,05,01,15,35,15.10
2020,05,01,15,36,15.10
2020,05,01,15,37,15.10
2020,05,01,15,38,15.10
2020,05,01,15,39,15.10
2020,05,01,15,40,15.10
2020,05,01,15,41,15.10
2020,05,01,15,42,15.10
2020,05,01,15,43,15.10
2020,05,01,15,44,15.10
2020,05,01,15,45,15.20
2020,05,01,15,46,15.10
2020,05,01,15,47,15.10
2020,05,01,15,48,15.10
2020,05,01,15,49,15.10
2020,05,01,15,50,15.10
2020,05,01,15,51,15.10
2020,05,01,15,52,15.10
2020,05,01,15,53,15.10
2020,05,01,15,54,15.10
2020,05,01,15,55,15.10
2020,05,01,15,56,15.10
2020,05,01,15,57,15.20
2020,05,01,15,58,15.20
2020,05,01,15,59,15.20
2020,05,01,16,00,15.30
2020,05,01,16,01,15.30
2020,05,01,16,02,15.40
2020,05,01,16,03,15.40
2020,05,01,16,04,15.40
2020,05,01,16,05,15.50
2020,05,01,16,06,15.50
2020,05,01,16,07,15.40
2020,05,01,16,08,15.40
2020,05,01,16,09,15.40
2020,05,01,16,10,15.50
2020,05,01,16,11,15.50
2020,05,01,16,12,15.50
2020,05,01,16,13,15.50
2020,05,01,16,14,15.60
2020,05,01,16,15,15.60
2020,05,01,16,16,15.60
2020,05,01,16,17,15.70
2020,05,01,16,18,15.70
2020,05,01,16,19,15.70
2020,05,01,16,20,15.70
2020,05,01,16,21,15.70
2020,05,01,16,22,15.70
2020,05,01,16,23,15.70
2020,05,01,16,24,15.70
2020,05,01,16,25,15.70
2020,05,01,16,26,15.70
2020,05,01,16,27,15.70
2020,05,01,16,28,15.70
2020,05,01,16,29,15.70
2020,05,01,16,30,15.70
2020,05,01,16,31,15.80
2020,05,01,16,32,15.80
2020,05,01,16,33,15.80
2020,05,01,16,34,15.80
2020,05,01,16,35,15.80
2020,05,01,16,36,15.80
2020,05,01,16,37,15.80
2020,05,01,16,38,15.80
2020,05,01,16,39,15.80
2020,05,01,16,40,15.80
2020,05,01,16,41,15.80
2020,05,01,16,42,15.80
2020,05,01,16,43,15.80
2020,05,01,16,44,15.80
2020,05,01,16,45,15.80
2020,05,01,16,46,15.80
2020,05,01,16,47,15.80
2020,05,01,16,48,15.80
2020,05,01,16,49,15.90
2020,05,01,16,50,15.90
2020,05,01,16,51,15.90
2020,05,01,16,52,15.80
2020,05,01,16,53,15.80
2020,05,01,16,54,15.90
2020,05,01,16,55,15.90
2020,05,01,16,56,16.00
2020,05,01,16,57,16.00
2020,05,01,16,58,16.00
2020,05,01,16,59,16.10
2020,05,01,17,00,16.10
2020,05,01,17,01,16.10
2020,05,01,17,02,16.20
2020,05,01,17,03,16.20
2020,05,01,17,04,16.30
2020,05,01,17,05,16.30
2020,05,01,17,06,16.40
2020,05,01,17,07,16.40
2020,05,01,17,08,16.40
2020,05,01,17,09,16.40
2020,05,01,17,10,16.40
2020,05,01,17,11,16.40
2020,05,01,17,12,16.40
2020,05,01,17,13,16.40
2020,05,01,17,14,16.40
2020,05,01,17,15,16.40
2020,05,01,17,16,16.30
2020,05,01,17,17,16.30
2020,05,01,17,18,16.30
2020,05,01,17,19,16.30
2020,05,01,17,20,16.30
2020,05,01,17,21,16.30
2020,05,01,17,22,16.30
2020,05,01,17,23,16.20
2020,05,01,17,24,16.20
2020,05,01,17,25,16.20
2020,05,01,17,26,16.20
2020,05,01,17,27,16.20
2020,05,01,17,28,16.20
2020,05,01,17,29,16.20
2020,05,01,17,30,16.10
2020,05,01,17,31,16.10
2020,05,01,17,32,16.10
2020,05,01,17,33,16.10
2020,05,01,17,34,16.10
2020,05,01,17,35,16.10
2020,05,01,17,36,16.10
2020,05,01,17,37,16.10
2020,05,01,17,38,16.10
2020,05,01,17,39,16.00
2020,05,01,17,40,15.90
2020,05,01,17,41,15.90
2020,05,01,17,42,15.90
2020,05,01,17,43,15.80